This is the latest recevied weather packets stored in our database for station/object KO4LCK. If no packets are shown the sender has not sent any weather packets the latest 10 day(s).
| Time | Temp. | Humidity | Pressure | Rain* | Wind** | Luminosity | Snow |
|---|---|---|---|---|---|---|---|
| 1777999679 | 25.56° C | 39% | 1015.8 hPa | 0 mm | - | 779 W/m² | - |
| 1777999377 | 25.56° C | 40% | 1016 hPa | 0 mm | - | 805 W/m² | - |
| 1777999075 | 25.56° C | 38% | 1016 hPa | 0 mm | - | 821 W/m² | - |
| 1777998773 | 25.56° C | 40% | 1016.3 hPa | 0 mm | - | 813 W/m² | - |
| 1777998470 | 26.11° C | 39% | 1016 hPa | 0 mm | - | 814 W/m² | - |
| 1777998167 | 26.11° C | 41% | 1015.9 hPa | 0 mm | - | 800 W/m² | - |
| 1777997865 | 25° C | 44% | 1016.1 hPa | 0 mm | - | 781 W/m² | - |
| 1777997562 | 25° C | 46% | 1016 hPa | 0 mm | - | 802 W/m² | - |
| 1777997259 | 25° C | 44% | 1015.8 hPa | 0 mm | - | 766 W/m² | - |
| 1777996957 | 25° C | 45% | 1015.8 hPa | 0 mm | - | 755 W/m² | - |
| 1777996653 | 25° C | 49% | 1015.6 hPa | 0 mm | - | 738 W/m² | - |
| 1777996349 | 24.44° C | 47% | 1015.9 hPa | 0 mm | - | 723 W/m² | - |
| 1777996046 | 23.89° C | 47% | 1016.1 hPa | 0 mm | - | 716 W/m² | - |
| 1777995742 | 23.89° C | 47% | 1016 hPa | 0 mm | - | 708 W/m² | - |
| 1777995438 | 24.44° C | 48% | 1016.5 hPa | 0 mm | - | 699 W/m² | - |
| 1777995136 | 24.44° C | 47% | 1016.3 hPa | 0 mm | - | 691 W/m² | - |
| 1777994833 | 23.89° C | 51% | 1016.6 hPa | 0 mm | - | 677 W/m² | - |
| 1777994528 | 24.44° C | 49% | 1016.5 hPa | 0 mm | - | 667 W/m² | - |
| 1777994223 | 23.33° C | 53% | 1016.7 hPa | 0 mm | - | 654 W/m² | - |
| 1777993921 | 22.78° C | 52% | 1016.6 hPa | 0 mm | - | 645 W/m² | - |
| 1777993617 | 22.22° C | 55% | 1016.5 hPa | 0 mm | - | 634 W/m² | - |
| 1777993314 | 22.78° C | 55% | 1016.7 hPa | 0 mm | - | 621 W/m² | - |
| 1777993009 | 22.22° C | 54% | 1016.5 hPa | 0 mm | - | 572 W/m² | - |
| 1777992709 | 22.22° C | 53% | 1016.4 hPa | 0 mm | - | 596 W/m² | - |
| 1777992406 | 22.22° C | 56% | 1016.3 hPa | 0 mm | - | 597 W/m² | - |
* Rain latest hour (hover to see other rain measurements)
** Current wind speed in m/s (hover to see current wind gust speed)